{"data":{"norad_id":68284,"intl_designator":"2026-055Y","name":"STARLINK-37159","alt_names":[],"object_type":"PAYLOAD","status":"ACTIVE","operator":null,"country":"US","launch_date":"2026-03-19","launch_site_code":"AFETR","launch_vehicle":null,"mission":null,"orbit_class":"UNKNOWN","rcs_meters":null,"size_class":null,"mass_kg":null,"dimensions":null,"purposes":["comms"],"wikipedia_slug":null,"has_3d_model":false,"image_url":null,"decayed_at":null,"tle_current":{"epoch":"2026-05-24T21:37:50.548800Z","epoch_age_seconds":94275,"freshness":"FRESH","line1":"1 68284U 26055Y   26144.90127950  .00034321  00000+0  10222-2 0  9997","line2":"2 68284  53.1602 326.4079 0001118  89.6625 270.4506 15.34400985 11583","mean_motion":15.34400985,"eccentricity":0.0001118,"inclination_deg":53.1602,"raan_deg":326.4079,"arg_perigee_deg":89.6625,"mean_anomaly_deg":270.4506,"bstar":0.0010222,"rev_number":1158,"period_min":93.847697836299,"perigee_km":461.93550696954,"apogee_km":463.46511819264,"semimajor_km":6840.8373125811,"source":"CELESTRAK","updated_at":"2026-05-25T13:38:21.894920Z"}}}